Location: Endfield
(51.6667°N, 0.0667°W)
Time: 06:57:15
(UTC+00:00)

USA 281 - Pass Details

Date: 19 May 2024
Orbit: 1076 x 1083 km, 106.0° (Epoch: 10 June)

Event Time Altitude Azimuth Distance (km) Brightness Sun altitude
Exits shadow 22:14:13 15° 186° (S) 2,533 4.7 -14.9°
Maximum altitude 22:19:17 44° 252° (WSW) 1,466 4.0 -15.2°
Drops below altitude 10° 22:25:32 10° 323° (NW) 2,932 6.8 -15.6°
Sets 22:28:13 0° 330° (NNW) 3,893 7.9 -15.7°
